Wind_Speed
26 26 25 25 24 24 23 23 23 23 23 22 22 22 21 21 21 20 20 20 20 20 20 20 20 19 19 19 19 19 19 19 19 19 19 20 20 20 21 23 24 24 25 26 25 25 25 25 26 27 28 28
27 27 26 25 25 25 24 24 24 23 23 23 23 22 22 21 21 20 20 20 21 20 20 20 20 20 19 19 19 18 19 19 19 19 19 19 19 20 21 22 23 24 25 26 26 26 26 26 26 27 28 29
27 27 27 27 26 26 25 25 25 24 24 23 23 23 22 22 21 21 21 21 21 21 21 21 20 20 20 19 18 18 18 18 18 17 18 19 19 20 21 22 23 24 25 26 27 27 27 27 27 27 28 29
28 28 28 28 27 27 26 25 25 24 24 24 23 23 23 23 22 22 22 22 22 21 21 21 20 20 20 19 19 18 18 18 18 18 18 19 20 21 22 22 23 24 25 26 27 27 28 29 29 29 29 29
29 29 29 28 28 27 26 25 25 25 24 24 24 23 23 23 23 22 22 22 22 22 21 21 21 21 20 20 20 20 19 19 20 20 20 21 22 23 24 25 26 26 27 27 28 28 28 29 30 30 30 30
30 30 29 29 28 27 26 25 25 25 24 23 23 23 23 23 23 23 23 23 23 23 23 22 22 22 22 22 21 21 21 21 22 23 24 25 25 26 27 28 29 29 29 29 29 30 30 30 30 31 31 32
30 30 30 29 28 27 26 25 25 24 23 23 23 23 24 24 24 24 24 24 24 24 24 24 24 23 23 23 23 23 24 24 24 25 26 27 28 29 29 30 31 31 31 31 31 31 31 31 31 32 32 33
31 31 30 29 28 27 25 25 24 23 23 24 24 25 25 25 25 25 25 26 26 26 26 26 25 25 25 25 25 25 26 26 27 27 28 29 29 30 31 31 31 32 32 32 33 33 33 33 33 33 33 33
31 30 29 28 27 26 25 25 25 25 26 26 26 26 26 26 26 26 27 27 27 27 27 27 27 27 27 27 27 28 28 29 29 29 30 30 31 31 31 32 32 32 32 33 33 34 34 34 34 34 34 34
30 29 28 28 27 27 27 27 28 28 28 28 27 27 27 27 27 27 28 28 28 28 28 29 29 29 29 29 29 30 30 30 30 31 31 32 32 33 33 34 34 34 34 35 35 35 35 36 36 35 35 35
30 29 29 28 28 29 29 29 29 28 28 28 27 27 27 28 28 28 29 29 29 29 30 30 30 31 31 31 31 31 31 31 31 32 32 33 34 35 36 36 37 38 38 38 38 37 37 37 37 37 36 36
31 31 30 30 30 30 30 29 29 28 28 28 27 27 28 28 29 29 30 30 30 31 31 31 31 32 32 32 32 32 32 32 33 33 34 34 35 36 37 38 39 40 40 40 40 40 40 39 39 38 38 38
32 32 31 31 31 31 30 30 29 28 28 28 28 28 29 29 30 30 31 31 32 32 32 33 33 33 33 34 33 33 33 33 34 34 35 35 36 36 36 37 38 39 40 41 41 41 41 41 40 40 39 39
33 33 32 32 31 31 30 29 29 28 28 28 29 29 30 30 31 31 31 32 32 33 33 34 34 34 34 34 34 34 34 35 35 35 35 36 36 37 37 37 37 38 40 40 41 41 41 41 41 41 41 40
33 33 32 31 31 30 30 29 29 29 29 29 29 30 30 31 31 31 32 32 33 34 34 35 35 35 35 35 35 35 35 35 35 35 36 36 37 37 37 37 37 38 39 40 41 41 41 41 41 41 41 41
33 32 32 31 31 30 30 30 29 29 29 29 30 31 31 31 31 32 33 34 34 35 35 36 36 36 36 36 36 36 36 36 36 36 37 37 38 39 39 39 39 38 39 39 40 40 40 41 41 41 41 42
32 32 31 31 31 30 30 30 29 29 29 30 30 31 31 32 32 33 34 34 35 36 36 36 36 36 36 37 37 37 37 37 38 38 39 40 40 41 41 41 40 39 39 39 39 39 39 40 40 40 41 41
31 31 31 30 30 30 30 30 29 29 30 30 31 31 32 32 33 34 34 35 35 36 36 37 37 37 38 38 38 38 38 39 40 40 41 42 42 43 43 42 41 40 40 39 40 39 39 39 39 39 39 40
30 30 30 30 30 30 30 30 29 30 30 30 31 32 32 33 34 35 35 36 36 37 37 38 38 38 39 39 39 40 40 41 42 42 43 43 44 44 44 44 43 42 42 41 41 41 40 39 39 39 38 38
30 30 30 30 30 30 30 29 29 30 30 30 31 32 33 34 35 35 36 37 37 38 38 39 39 40 40 41 41 42 42 43 44 44 44 44 45 45 45 45 45 45 45 45 44 43 42 41 41 40 39 38
31 31 31 30 30 30 29 29 30 30 31 31 32 33 34 34 35 36 37 38 38 39 39 40 41 41 42 43 43 44 44 45 46 46 46 46 46 47 47 48 48 48 48 48 46 45 44 44 43 42 41 39
31 31 31 30 30 30 30 30 31 31 32 33 33 34 35 36 37 38 38 39 40 40 41 42 43 44 44 45 45 46 47 47 47 47 47 47 48 48 49 49 49 49 49 48 47 45 44 44 44 43 42 41
32 31 31 31 30 31 31 32 32 33 33 34 35 35 36 37 38 39 40 41 42 43 44 45 46 46 47 47 48 48 48 49 49 49 49 49 49 50 50 50 49 48 47 46 45 43 42 42 42 42 42 41
32 32 31 31 31 31 32 32 33 34 34 34 35 36 37 38 39 40 41 43 44 45 47 48 48 49 49 49 49 50 50 50 50 50 50 50 51 50 49 49 47 46 44 43 42 41 40 39 39 39 39 40
32 32 32 32 32 32 33 33 34 34 35 36 37 38 39 40 41 42 44 45 47 48 49 50 51 51 50 50 51 51 51 51 51 51 51 51 51 50 48 46 44 43 42 42 42 41 40 39 38 37 37 37
32 32 33 33 34 34 35 36 36 37 38 39 40 41 42 43 44 45 46 48 49 50 51 51 52 52 52 52 52 53 53 53 52 52 52 51 50 49 47 45 43 42 42 42 42 41 41 39 38 38 37 36
32 33 34 34 35 36 37 38 39 40 41 42 42 44 45 46 47 48 49 50 51 52 52 52 52 52 53 53 53 53 53 53 53 52 51 50 49 47 46 45 43 42 42 43 42 42 42 40 40 39 39 38
33 34 34 35 36 37 38 39 40 41 42 43 44 45 46 47 49 50 51 51 52 52 52 52 52 53 53 53 53 53 53 53 52 51 50 49 48 47 46 45 44 43 42 42 42 43 43 41 41 41 40 41
33 34 35 36 37 39 40 40 41 42 43 44 45 46 47 48 49 50 50 51 51 51 52 52 53 53 53 53 53 53 52 52 51 50 48 47 47 46 46 46 45 44 43 43 42 43 43 42 42 41 41 42
35 36 37 39 40 41 42 43 44 44 45 46 47 47 48 48 48 49 50 50 51 51 52 52 53 53 53 53 52 52 51 51 50 49 47 47 46 46 46 46 46 44 43 43 43 43 42 42 43 42 42 43
36 37 39 40 41 42 43 44 44 45 46 47 47 47 47 48 48 48 49 50 50 51 51 51 51 51 51 51 51 50 50 50 49 48 47 46 46 46 46 47 47 46 44 44 44 44 43 43 43 43 43 43
Wind_Direction
278 279 281 283 284 285 286 286 285 285 285 285 285 285 284 283 281 280 279 278 278 277 278 278 278 278 278 278 278 278 279 281 283 285 287 288 289 289 289 288 288 287 286 284 283 281 278 276 274 273 274 275
278 279 280 281 282 283 283 283 283 283 283 282 281 280 278 277 275 274 274 273 274 274 275 275 276 275 275 275 276 277 278 280 282 285 287 289 291 292 293 292 291 290 289 287 285 283 281 278 276 274 273 273
276 277 278 279 281 282 282 282 282 282 281 279 278 276 274 272 271 271 271 272 272 273 273 273 273 272 272 272 273 274 276 278 280 283 286 289 292 294 295 295 295 294 293 291 289 286 283 280 278 276 273 272
275 276 277 279 281 282 283 282 281 280 279 277 275 274 272 270 269 269 270 271 271 270 269 268 267 267 268 268 269 270 272 275 278 281 285 288 291 293 294 295 296 296 295 294 292 290 287 283 280 277 275 273
276 276 278 279 281 282 282 281 279 278 276 275 273 272 270 269 268 268 269 268 267 266 264 263 262 263 264 266 268 270 272 276 280 284 287 289 291 292 293 293 294 294 294 294 294 292 290 287 283 280 277 274
276 277 279 280 281 281 280 279 277 275 273 272 270 269 267 266 266 266 266 264 263 261 260 259 259 261 264 267 271 273 277 280 284 288 290 292 293 293 294 294 293 292 292 291 292 292 291 289 287 283 279 276
276 278 279 280 281 280 279 277 274 273 270 268 265 263 261 261 262 262 261 260 259 259 259 259 260 263 266 270 274 277 280 284 287 290 292 293 294 295 295 294 294 292 291 290 289 289 290 289 288 285 282 278
276 278 280 281 281 279 276 273 270 267 264 260 257 256 257 258 258 257 257 256 257 258 259 261 263 266 269 273 276 280 283 286 289 291 293 293 294 295 295 295 294 293 291 289 288 288 288 288 287 285 283 280
277 279 281 280 278 274 270 267 263 260 258 257 256 257 257 256 255 255 256 257 257 259 260 263 266 269 272 275 278 282 285 287 290 291 292 293 293 294 294 294 293 293 292 291 289 288 287 287 286 284 282 280
278 278 278 275 272 269 265 262 260 259 259 259 259 257 256 255 255 256 257 258 260 261 262 265 268 271 274 277 280 283 285 287 289 290 291 292 293 293 293 293 293 292 292 291 290 289 288 287 286 284 281 278
276 275 273 271 268 265 263 262 262 262 262 261 259 257 256 256 256 257 258 259 261 262 263 266 269 272 275 278 280 282 284 286 288 289 291 292 292 292 292 292 292 291 291 290 290 289 288 287 286 284 281 278
273 272 271 268 266 264 264 263 263 262 260 259 257 256 255 255 255 256 258 259 260 262 264 267 270 273 276 278 280 281 282 284 287 289 290 290 291 292 293 292 291 290 290 289 288 287 286 286 285 283 281 279
270 270 268 266 265 264 264 263 262 261 259 258 256 255 254 254 255 256 258 260 262 264 266 269 271 273 276 277 279 280 282 284 286 287 288 289 290 292 293 293 292 290 289 288 286 285 284 283 283 281 280 278
268 268 267 265 264 263 262 261 260 259 257 257 256 256 255 256 256 258 259 261 263 265 268 270 272 274 276 277 278 280 282 284 286 287 288 290 291 292 292 293 293 291 288 287 285 284 282 281 280 279 278 277
267 267 265 262 260 259 258 257 256 255 254 254 254 254 255 256 257 259 261 263 265 267 269 271 273 274 276 277 278 280 283 285 286 287 289 292 293 293 292 292 292 291 288 286 284 282 281 279 278 277 276 275
265 262 259 256 255 253 253 253 252 252 252 252 253 254 255 257 259 261 263 265 267 269 271 272 274 276 277 279 280 282 284 286 287 289 291 293 295 294 293 292 292 290 288 285 283 281 280 278 277 275 275 274
259 256 253 251 250 250 250 250 250 250 251 252 253 255 258 260 262 264 266 268 270 271 273 274 276 278 280 281 283 284 286 288 289 290 291 292 293 294 294 293 291 289 287 284 282 281 279 278 276 275 274 273
254 251 249 248 248 248 248 248 249 250 252 254 256 258 261 263 265 266 268 270 272 273 275 277 278 281 282 284 285 287 288 290 291 291 291 291 291 292 292 292 291 289 287 284 283 281 280 279 277 275 274 273
250 248 246 246 246 247 247 248 250 251 254 256 259 261 263 265 267 269 270 272 274 275 277 279 281 283 284 285 287 288 290 291 291 290 290 290 290 290 290 290 289 287 286 284 283 281 280 279 278 277 275 274
247 246 245 245 246 247 248 250 252 254 257 260 262 264 266 268 270 271 273 274 276 278 280 281 283 285 286 287 288 289 290 291 291 290 289 289 289 289 289 289 288 287 285 283 282 280 279 278 277 277 276 275
246 245 245 246 247 248 250 253 255 258 260 262 265 266 268 270 272 274 275 277 278 280 282 283 285 286 288 289 290 290 291 291 290 289 289 288 288 288 288 288 287 286 285 283 281 279 277 276 275 275 275 275
245 245 246 247 249 251 254 256 259 261 263 265 267 269 270 272 274 275 277 279 280 282 284 285 286 287 289 290 290 290 290 290 289 288 288 288 288 288 288 288 286 285 283 282 280 278 276 274 273 272 272 272
245 246 248 250 253 255 258 260 262 264 266 268 270 271 273 275 276 278 280 281 282 284 285 286 287 289 290 290 290 290 289 288 287 287 287 287 288 287 287 286 285 283 281 279 278 276 275 273 272 272 271 270
247 249 252 255 257 260 262 263 266 267 269 271 273 274 276 277 279 280 282 283 284 285 286 287 289 289 290 290 289 289 288 287 286 286 286 287 287 286 285 284 282 280 279 277 276 275 274 273 273 272 272 271
251 253 256 258 260 262 264 266 267 269 271 273 274 276 277 278 280 281 283 284 285 286 287 288 289 289 289 289 288 288 287 286 286 286 286 285 285 284 282 280 278 278 277 276 276 275 274 274 274 272 272 272
255 257 260 262 264 265 267 268 270 271 273 274 275 276 278 279 280 281 283 284 285 287 288 289 289 288 288 287 286 286 286 285 285 285 284 283 282 281 279 277 276 276 276 276 276 276 275 274 274 273 272 271
260 262 264 266 268 270 271 273 273 275 276 277 278 279 279 280 281 283 284 285 287 288 288 288 287 286 285 285 284 284 284 284 284 283 282 281 279 278 276 275 275 275 275 275 276 276 275 274 274 273 274 272
266 268 270 272 273 275 276 277 278 279 280 280 281 282 283 284 285 285 286 286 287 286 286 285 284 284 283 283 283 283 283 283 282 280 279 278 277 276 275 274 274 274 274 274 275 275 274 275 274 274 274 274
274 275 277 278 279 280 280 281 282 282 283 283 284 284 285 285 285 285 285 285 285 284 283 283 283 283 283 282 282 282 281 280 279 277 276 275 274 274 274 273 272 272 273 273 273 274 274 274 274 273 274 274
283 284 284 284 284 284 284 284 284 284 284 284 284 284 284 284 284 284 284 284 284 283 283 282 282 282 281 281 280 279 278 277 276 275 273 273 273 272 272 272 272 271 271 271 271 272 273 274 273 273 274 274
290 290 290 290 289 289 289 288 288 287 287 287 286 286 286 286 285 285 284 284 283 283 282 282 281 281 280 279 278 277 276 275 274 273 272 272 271 271 271 271 271 270 270 270 270 271 271 272 274 274 274 274
Height
3128 3127 3127 3126 3126 3125 3125 3125 3125 3125 3125 3125 3125 3125 3125 3124 3124 3124 3124 3123 3123 3123 3123 3123 3123 3123 3123 3122 3122 3122 3121 3121 3120 3120 3120 3120 3120 3119 3119 3118 3118 3117 3117 3117 3118 3118 3118 3119 3119 3119 3118 3117
3125 3124 3124 3124 3124 3124 3123 3123 3123 3123 3123 3123 3123 3123 3123 3123 3122 3122 3122 3122 3122 3121 3121 3121 3121 3120 3120 3120 3120 3119 3119 3119 3118 3118 3118 3117 3117 3117 3117 3116 3116 3115 3115 3114 3115 3115 3115 3115 3115 3116 3115 3115
3122 3122 3122 3122 3122 3122 3121 3121 3121 3121 3121 3121 3121 3121 3121 3121 3120 3120 3120 3120 3120 3120 3119 3119 3118 3118 3118 3118 3118 3117 3117 3117 3116 3116 3116 3115 3115 3115 3114 3114 3113 3113 3112 3112 3112 3112 3112 3112 3112 3112 3112 3112
3120 3120 3120 3120 3120 3119 3119 3119 3119 3119 3119 3119 3119 3119 3119 3118 3118 3118 3118 3118 3118 3117 3117 3117 3116 3116 3116 3116 3116 3115 3115 3114 3114 3114 3114 3113 3113 3112 3112 3111 3111 3110 3110 3109 3109 3109 3108 3109 3109 3109 3109 3108
3118 3118 3118 3118 3117 3117 3117 3117 3117 3117 3117 3117 3117 3117 3117 3116 3116 3116 3116 3116 3115 3115 3115 3115 3114 3114 3114 3114 3113 3113 3112 3112 3111 3111 3111 3110 3110 3109 3109 3108 3108 3107 3107 3106 3106 3105 3105 3105 3105 3105 3105 3105
3116 3115 3115 3115 3115 3115 3115 3115 3115 3115 3115 3115 3115 3115 3114 3114 3114 3114 3114 3113 3113 3113 3113 3113 3112 3112 3112 3111 3110 3110 3110 3109 3109 3108 3108 3107 3107 3106 3106 3105 3105 3104 3104 3103 3103 3102 3102 3101 3101 3101 3101 3101
3113 3113 3113 3113 3113 3113 3113 3113 3113 3113 3113 3113 3112 3112 3111 3111 3111 3111 3111 3111 3111 3110 3110 3110 3110 3109 3109 3108 3108 3107 3107 3106 3106 3105 3105 3104 3104 3103 3103 3102 3102 3101 3101 3100 3100 3099 3099 3098 3098 3098 3097 3097
3110 3110 3110 3111 3111 3111 3110 3110 3110 3110 3109 3109 3109 3109 3109 3109 3109 3109 3108 3108 3108 3108 3107 3107 3107 3106 3106 3105 3105 3104 3103 3103 3103 3102 3101 3101 3100 3100 3100 3099 3099 3098 3097 3097 3097 3096 3095 3095 3094 3094 3094 3093
3108 3108 3108 3108 3108 3108 3107 3107 3107 3106 3106 3106 3106 3107 3107 3107 3106 3106 3105 3105 3105 3104 3104 3104 3103 3103 3102 3102 3101 3101 3100 3100 3100 3099 3099 3098 3097 3097 3096 3096 3095 3095 3094 3094 3093 3093 3092 3091 3091 3090 3090 3089
3105 3105 3105 3105 3104 3104 3104 3104 3103 3103 3104 3104 3104 3104 3104 3104 3103 3103 3102 3102 3102 3101 3101 3101 3100 3100 3099 3099 3098 3098 3098 3097 3097 3096 3096 3095 3095 3094 3093 3093 3092 3092 3091 3090 3089 3089 3088 3087 3087 3087 3086 3086
3102 3101 3101 3101 3101 3101 3101 3101 3101 3101 3102 3102 3102 3101 3101 3101 3100 3100 3099 3099 3099 3098 3098 3097 3097 3096 3096 3096 3095 3095 3095 3095 3094 3094 3093 3092 3092 3091 3090 3089 3089 3088 3087 3086 3086 3085 3084 3083 3083 3082 3082 3082
3099 3099 3098 3098 3098 3098 3099 3099 3099 3099 3099 3099 3098 3098 3098 3097 3097 3097 3096 3096 3096 3095 3095 3094 3094 3094 3093 3093 3093 3093 3092 3092 3091 3091 3090 3089 3088 3088 3087 3086 3085 3084 3083 3082 3082 3081 3080 3079 3078 3078 3077 3077
3096 3096 3096 3096 3096 3096 3096 3096 3096 3096 3096 3095 3095 3095 3095 3094 3094 3094 3093 3093 3093 3092 3092 3092 3091 3091 3091 3090 3090 3090 3089 3089 3088 3087 3086 3086 3085 3084 3083 3082 3081 3080 3079 3078 3077 3076 3076 3075 3074 3073 3073 3072
3094 3094 3094 3094 3094 3094 3094 3093 3093 3093 3093 3093 3092 3092 3092 3091 3091 3091 3091 3090 3090 3089 3089 3089 3088 3088 3088 3087 3087 3086 3085 3085 3084 3083 3082 3082 3081 3080 3079 3078 3077 3076 3075 3074 3073 3072 3071 3070 3070 3069 3068 3068
3092 3091 3091 3091 3091 3090 3090 3090 3090 3090 3090 3089 3089 3089 3088 3088 3088 3088 3087 3087 3086 3086 3086 3085 3085 3085 3084 3083 3083 3082 3081 3081 3080 3079 3078 3077 3076 3075 3075 3074 3073 3072 3070 3069 3068 3067 3067 3066 3065 3064 3063 3063
3089 3088 3088 3087 3087 3087 3087 3087 3087 3086 3086 3086 3085 3085 3085 3085 3084 3084 3083 3083 3083 3083 3082 3082 3081 3081 3080 3079 3079 3078 3077 3076 3076 3075 3074 3073 3072 3071 3070 3069 3068 3067 3066 3065 3064 3063 3062 3061 3061 3060 3059 3058
3085 3085 3084 3084 3084 3084 3084 3084 3083 3083 3083 3082 3082 3082 3081 3081 3081 3080 3080 3080 3079 3079 3078 3078 3077 3077 3076 3075 3074 3074 3073 3072 3071 3071 3069 3069 3068 3067 3066 3065 3064 3063 3062 3061 3060 3059 3058 3057 3056 3055 3054 3054
3082 3082 3082 3082 3081 3081 3081 3081 3080 3080 3080 3079 3079 3078 3078 3077 3077 3076 3076 3076 3075 3075 3074 3074 3073 3072 3072 3071 3070 3069 3069 3068 3067 3066 3065 3064 3063 3062 3061 3060 3060 3059 3058 3057 3055 3055 3054 3053 3051 3051 3050 3049
3080 3079 3079 3079 3078 3078 3078 3077 3077 3077 3076 3076 3075 3074 3074 3073 3073 3072 3072 3071 3071 3071 3070 3069 3069 3068 3067 3066 3065 3065 3064 3063 3062 3061 3060 3059 3058 3057 3056 3055 3055 3054 3053 3052 3051 3050 3049 3048 3047 3046 3045 3045
3077 3076 3076 3076 3075 3075 3074 3074 3074 3073 3073 3072 3071 3071 3070 3069 3068 3068 3067 3067 3066 3066 3065 3064 3064 3063 3062 3061 3061 3060 3059 3058 3057 3056 3055 3054 3052 3052 3051 3050 3049 3048 3047 3047 3046 3045 3044 3043 3042 3041 3041 3040
3074 3073 3073 3072 3072 3072 3071 3071 3070 3070 3069 3068 3067 3067 3066 3065 3064 3064 3063 3062 3062 3061 3060 3059 3058 3058 3057 3056 3056 3055 3054 3053 3052 3050 3049 3048 3047 3046 3045 3044 3043 3043 3041 3041 3040 3040 3039 3038 3037 3036 3036 3035
3071 3070 3070 3069 3069 3069 3068 3067 3067 3066 3065 3064 3063 3062 3062 3061 3060 3059 3058 3057 3057 3056 3055 3054 3053 3053 3052 3051 3050 3049 3048 3047 3046 3045 3043 3043 3041 3040 3039 3038 3037 3036 3035 3034 3034 3034 3033 3032 3031 3031 3031 3030
3068 3067 3067 3067 3066 3065 3065 3064 3063 3062 3061 3060 3059 3058 3057 3056 3055 3054 3053 3052 3051 3050 3050 3049 3048 3047 3046 3045 3044 3043 3043 3042 3040 3039 3038 3036 3035 3034 3033 3032 3031 3030 3029 3028 3028 3028 3027 3026 3025 3025 3025 3024
3065 3064 3064 3064 3063 3062 3061 3060 3059 3058 3057 3056 3054 3053 3052 3051 3050 3049 3048 3047 3046 3045 3044 3043 3042 3041 3040 3039 3038 3037 3037 3036 3034 3033 3031 3030 3028 3027 3027 3025 3024 3024 3023 3022 3022 3022 3021 3021 3020 3020 3019 3019
3062 3061 3061 3060 3059 3058 3057 3056 3054 3053 3052 3051 3050 3049 3048 3046 3045 3044 3043 3042 3041 3040 3039 3037 3036 3035 3034 3033 3032 3031 3030 3029 3028 3026 3025 3023 3022 3021 3020 3020 3019 3018 3017 3016 3016 3016 3016 3015 3015 3014 3014 3014
3059 3058 3057 3056 3055 3054 3052 3051 3050 3048 3047 3046 3045 3044 3043 3041 3040 3039 3038 3037 3036 3035 3033 3032 3030 3029 3028 3027 3026 3025 3024 3022 3021 3019 3018 3016 3015 3014 3014 3013 3013 3012 3011 3010 3010 3010 3009 3010 3009 3008 3009 3009
3055 3054 3053 3052 3050 3049 3047 3046 3045 3043 3042 3041 3040 3038 3037 3036 3035 3034 3033 3032 3030 3029 3027 3026 3025 3023 3022 3021 3019 3018 3017 3015 3014 3012 3011 3010 3009 3008 3007 3007 3007 3007 3006 3004 3004 3003 3002 3003 3003 3003 3003 3002
3051 3050 3048 3047 3045 3044 3042 3041 3040 3038 3037 3036 3035 3033 3032 3031 3029 3028 3027 3026 3024 3023 3022 3020 3019 3017 3016 3014 3013 3011 3010 3008 3007 3006 3004 3003 3002 3001 3001 3001 3001 3000 3000 2999 2998 2996 2996 2997 2996 2996 2996 2995
3047 3045 3043 3042 3040 3039 3037 3036 3035 3034 3032 3031 3030 3028 3027 3025 3024 3022 3021 3020 3019 3017 3016 3014 3013 3011 3009 3008 3006 3004 3002 3001 3000 2999 2998 2997 2996 2995 2994 2994 2994 2994 2994 2993 2992 2990 2990 2990 2989 2989 2990 2989
3042 3040 3038 3037 3035 3034 3032 3031 3030 3028 3027 3026 3024 3023 3021 3020 3018 3017 3015 3014 3012 3011 3010 3008 3006 3004 3002 3001 2999 2997 2996 2995 2993 2993 2992 2991 2990 2988 2988 2987 2987 2988 2988 2987 2986 2985 2984 2983 2982 2983 2983 2982
3037 3035 3034 3032 3030 3029 3027 3025 3024 3023 3021 3020 3018 3017 3015 3014 3012 3010 3009 3007 3005 3004 3002 3001 2999 2998 2996 2994 2992 2991 2989 2988 2987 2986 2985 2984 2983 2982 2981 2980 2980 2981 2981 2980 2979 2979 2978 2977 2976 2975 2976 2975